Weather History for The Dalles, OR

Change the Weather History Date:

Thursday, November 3, 2011

  Actual Average Record
Temperature  
Mean Temperature 48 °F -  
Max Temperature 57 °F 57 °F 72 °F (1975)
Min Temperature 41 °F 39 °F 16 °F (2002)
Degree Days  
Heating Degree Days 17    
Moisture  
Dew Point 34 °F    
Average Humidity 61    
Maximum Humidity 76    
Minimum Humidity 36    
Precipitation  
Precipitation 0.00 in - - ()
Sea Level Pressure  
Sea Level Pressure 29.84 in    
Wind  
Wind Speed 11 mph (NW)    
Max Wind Speed 18 mph    
Max Gust Speed 26 mph    
Visibility 10 miles    
Events Rain    
Averages and records for this station are not official NWS values.
T = Trace of Precipitation, MM = Missing Value Source: NWS Daily Summary

Daily Weather History Graph

Daily Weather History Graph

Search for Another Location

Airport:

Trip Planner

Search our weather history database for the weather conditions in past years. The results will help you decide how hot, cold, wet, or windy it might be!

Date:

Astronomy

Nov. 03, 2011 Rise Set
Actual Time 7:46 AM PDT 5:48 PM PDT
Civil Twilight 7:15 AM PDT 6:19 PM PDT
Nautical Twilight 6:40 AM PDT 6:55 PM PDT
Astronomical Twilight 6:06 AM PDT 7:29 PM PDT
Moon 2:32 PM PDT (11/3) 12:44 AM PDT (11/3)
Length of Visible Light 11h 04m
Length of Day
10h 01m
First Quarter, 61% of the Moon is Illuminated
Nov 3
First Quarter
Nov 10
Full
Nov 18
Last Quarter
Nov 24
New
Dec 2
First Quarter

Hourly Weather History & Observations

Time (PDT) Temp. Windchill Dew Point Humidity Pressure Visibility Wind Dir Wind Speed Gust Speed Precip Events Conditions
12:53 AM 50.0 °F - 39.0 °F 66% 29.86 in 10.0 mi NW 18.4 mph 26.5 mph N/A   Mostly Cloudy
1:53 AM 48.0 °F - 37.9 °F 68% 29.87 in 10.0 mi NW 11.5 mph 21.9 mph 0.00 in Rain Light Rain
2:53 AM 48.0 °F - 37.0 °F 66% 29.86 in 10.0 mi WNW 9.2 mph - 0.00 in   Overcast
3:53 AM 48.0 °F - 37.0 °F 66% 29.86 in 10.0 mi NW 12.7 mph - N/A   Overcast
4:53 AM 48.0 °F - 37.0 °F 66% 29.85 in 10.0 mi WNW 11.5 mph - N/A   Overcast
6:53 AM 48.0 °F - 36.0 °F 63% 29.87 in 10.0 mi WNW 8.1 mph - N/A   Overcast
7:53 AM 46.0 °F 43.9 °F 36.0 °F 68% 29.87 in 10.0 mi West 4.6 mph - N/A   Overcast
8:53 AM 46.9 °F - 36.0 °F 66% 29.88 in 10.0 mi NW 5.8 mph - N/A   Mostly Cloudy
9:53 AM 48.9 °F - 36.0 °F 61% 29.88 in 10.0 mi WNW 8.1 mph - N/A   Clear
10:53 AM 50.0 °F - 34.0 °F 54% 29.87 in 10.0 mi West 3.5 mph - N/A   Clear
11:53 AM 52.0 °F - 35.1 °F 53% 29.86 in 10.0 mi NNW 11.5 mph - N/A   Clear
12:53 PM 53.1 °F - 30.0 °F 41% 29.83 in 10.0 mi NNW 15.0 mph 21.9 mph N/A   Clear
1:53 PM 55.9 °F - 28.9 °F 36% 29.81 in 10.0 mi West 12.7 mph 20.7 mph N/A   Clear
5:53 PM 46.9 °F - 30.0 °F 52% 29.80 in 10.0 mi WNW 6.9 mph - N/A   Clear
6:53 PM 46.0 °F 42.5 °F 30.9 °F 56% 29.80 in 10.0 mi NW 6.9 mph - N/A   Clear
7:53 PM 46.9 °F - 30.9 °F 54% 29.80 in 10.0 mi WNW 4.6 mph - N/A   Clear
8:53 PM 45.0 °F 40.1 °F 36.0 °F 71% 29.81 in 10.0 mi NW 9.2 mph - N/A   Clear
9:53 PM 41.0 °F - 32.0 °F 70% 29.82 in 10.0 mi Calm Calm - N/A   Clear
10:53 PM 43.0 °F 36.8 °F 35.1 °F 74% 29.82 in 10.0 mi NW 11.5 mph - N/A   Scattered Clouds
11:53 PM 42.1 °F 35.2 °F 35.1 °F 76% 29.82 in 10.0 mi NW 12.7 mph - N/A   Clear